User: anonymous   Login
Location: Stonelick Lake State Park
(39.2170°N, 84.0850°W)
Time: 14:31:23
(UTC-04:00)
Language:

Lacrosse 5 - Orbit

View from above orbital plane
View from above orbital plane
View from above satellite
View from above satellite

Ground track
Ground track

The orbit data is extracted from the following two-line orbital elements,

1 28646U 05016A   15124.03431326 0.00000200  00000-0  48895-4 0    06
2 28646  57.0110 139.0449 0006000 135.2055 224.7945 14.52248733    01
Epoch (UTC): 04 May 2015 00:49:24
Eccentricity: 0.0006000
inclination: 57.0110°
perigee height: 714 km
apogee height: 722 km
right ascension of ascending node: 139.0449°
argument of perigee: 135.2055°
revolutions per day: 14.52248733
mean anomaly at epoch: 224.7945°
orbit number at epoch: 0

The dashed part of the orbit path shows where the satellite is in the earth's shadow,  

DLR